Flag for Germany Weather past 2 weeks in Cottbus, Brandenburg, Germany

Now
55 °F

Low clouds.


Feels Like: 55 °F
Forecast: 53 / 71 °F
Wind: 2 mph from Northeast

Location: Cottbus

Current Time: Sep 2, 2014 at 11:31:20 PM

Latest Report: Sep 2, 2014 at 11:00 PM


Visibility: 18 mi

Pressure: 30.25 "Hg

Humidity: 92%

Dew point: 53 °F

Location of CottbusLocation

Historic Weather in Cottbus — Graph

°F

Cottbus temperature yesterday

Maximum temperature yesterday: 61 °F (at 4:00 PM)
Minimum temperature yesterday: 54 °F (at 5:00 AM)
Average temperature yesterday: 57 °F

Past Weeks' High & Low Weather Summary

 TemperatureHumidityPressure
High75 °F (Aug 29, 4:00 PM)100% (Aug 27, 7:00 AM)30.24 "Hg (Aug 27, 7:00 AM)
Low43 °F (Aug 25, 6:00 AM)32% (Aug 28, 4:00 PM)29.74 "Hg (Aug 18, 10:00 PM)
Average58 °F78%29.96 "Hg
* Reported Aug 18 10:00 PM — Sep 2 10:00 PM, Cottbus, Weather by CustomWeather, © 2014

Note: Actual official high and low records may vary slightly from our data, if they occured in-between our weather recording intervals... More about our weather records

Advertising

Cottbus weather history for previous 24 hours

 ConditionsComfort  
Time TempWeatherWind HumidityBarometerVisibility
10:00 PM
Sep 2
55 °FLow clouds.3 mph93%30.24 "Hg19 mi
9:00 PM58 °FPassing clouds.2 mph83%30.24 "Hg25 mi
8:00 PM58 °FPassing clouds.2 mph80%30.22 "Hg28 mi
7:00 PM58 °FDrizzle. Overcast.3 mph80%30.20 "Hg25 mi
6:00 PM59 °FOvercast.5 mph76%30.18 "Hg37 mi
5:00 PM60 °FOvercast.3 mph81%30.17 "Hg25 mi
4:00 PM60 °FOvercast.3 mph82%30.17 "Hg22 mi
3:00 PM60 °FOvercast.2 mph85%30.16 "Hg22 mi
2:00 PM59 °FOvercast.2 mph85%30.15 "Hg19 mi
1:00 PM60 °FOvercast.3 mph81%30.14 "Hg19 mi
12:00 PM59 °FOvercast.3 mph86%30.14 "Hg11 mi
11:00 AM58 °FLow clouds.2 mph92%30.13 "Hg6 mi
10:00 AM57 °FDrizzle. Low clouds.2 mph95%30.11 "Hg4 mi
9:00 AM57 °FDrizzle. Low clouds.2 mph95%30.09 "Hg4 mi
8:00 AM57 °FLight rain. Low clouds.2 mph96%30.09 "Hg3 mi
7:00 AM57 °FLight rain. Low clouds.2 mph98%30.08 "Hg2 mi
6:00 AM57 °FLight rain. Low clouds.2 mph98%30.06 "Hg2 mi
5:00 AM57 °FLight rain. Low clouds.1 mph98%30.06 "Hg2 mi
4:00 AM57 °FLight rain. Low clouds.1 mph98%30.06 "Hg2 mi
3:00 AM57 °FLight rain. Low clouds.1 mph98%30.07 "Hg2 mi
2:00 AM57 °FLight rain. Low clouds.1 mph98%30.08 "Hg2 mi
1:00 AM57 °FLight rain. Low clouds.1 mph98%30.08 "Hg2 mi
12:00 AM57 °FLight rain. Dense fog.1 mph98%30.08 "Hg1 mi
11:00 PM
Sep 1
57 °FLight rain. Low clouds.1 mph98%30.08 "Hg1 mi
Weather by CustomWeather, © 2014

See weather overviewHow to use our weather pages